Temp
14 14 13 13 13 13 14 14 14 14 13 13 13 13 13 12 12 12 12 11 10 10 9 9 9 9 9 9 9 9 9 9 9 9 9 9 9 9 9 8 8 8 8 8 8 8 8 8 7 7 7 7 7 7 6 6 6 6 6 6 6 6 5 5 5 5 5 5 5
13 13 13 13 13 13 13 14 13 13 13 13 13 13 13 12 12 12 12 11 10 10 10 9 9 9 9 9 9 9 9 9 9 9 9 9 9 9 8 8 8 8 8 8 8 8 7 7 7 7 7 7 7 6 6 6 6 6 6 6 6 5 5 5 5 5 5 5 5
13 13 13 13 13 13 13 13 13 13 12 12 12 13 13 13 13 12 11 10 10 10 10 10 10 10 10 9 9 9 9 9 9 9 9 9 9 8 8 8 8 8 8 8 8 7 7 7 7 7 7 6 6 6 6 6 6 6 6 6 5 5 5 5 5 5 5 5 5
13 13 13 13 12 12 12 13 12 12 12 12 12 13 13 13 13 12 11 10 10 10 10 10 10 10 10 9 9 9 9 9 9 9 9 9 8 8 8 8 8 8 8 7 7 7 7 7 7 6 6 6 6 6 6 6 6 6 6 6 5 5 5 5 5 5 5 5 5
13 12 12 12 12 12 12 12 12 12 12 12 12 13 13 13 12 11 11 10 10 10 10 11 11 10 10 10 9 9 9 9 9 9 9 9 8 8 8 8 8 8 8 7 7 7 7 7 7 6 6 7 6 6 6 6 6 6 6 5 5 5 5 5 5 5 5 5 5
13 12 12 12 12 12 12 11 11 12 12 12 13 13 13 12 12 11 11 10 10 11 11 11 11 10 10 10 9 9 9 9 9 9 9 8 8 8 8 8 8 8 7 7 7 7 7 7 7 7 7 7 6 6 6 6 6 6 6 5 5 5 5 5 5 5 5 5 5
13 13 12 12 12 12 12 11 11 11 12 12 13 13 13 12 11 11 11 11 11 11 11 11 10 10 10 10 9 9 9 9 8 9 8 8 8 8 8 8 8 7 7 7 7 7 7 7 7 7 7 6 6 6 6 6 6 6 6 5 5 5 5 5 5 5 5 5 5
14 13 12 12 12 12 12 11 11 11 12 12 13 13 12 11 11 11 11 11 11 11 11 11 10 10 10 10 9 9 9 9 8 8 8 8 8 8 8 8 7 7 7 7 7 7 7 7 7 7 7 6 6 6 6 6 6 6 6 6 5 5 5 5 5 5 5 5 4
14 13 13 12 12 12 12 11 11 12 12 12 12 12 12 11 11 11 11 11 11 11 11 10 10 10 10 10 9 9 9 9 8 8 8 8 8 8 8 7 7 7 7 7 7 7 7 7 7 7 7 6 6 6 6 6 6 6 6 6 5 5 5 5 5 5 4 4 4
14 14 13 12 12 12 12 12 12 12 12 12 12 12 12 11 11 11 11 11 11 11 10 10 10 10 10 9 9 9 9 9 8 8 8 8 8 8 7 7 7 7 7 7 7 7 7 7 7 7 6 6 6 6 6 5 5 5 5 5 5 5 5 5 5 5 4 4 4
15 14 13 13 12 12 12 12 12 12 12 12 12 12 11 11 11 11 11 11 11 10 10 10 10 10 10 9 9 9 9 8 8 8 8 8 8 7 7 7 7 7 7 7 7 7 7 7 7 7 6 6 6 6 5 5 5 5 5 5 5 5 5 5 5 4 4 4 4
15 15 14 14 13 13 12 12 12 12 12 12 12 12 11 11 11 11 11 11 10 10 10 10 10 10 10 9 9 9 9 8 8 8 8 8 8 7 7 7 7 7 7 7 7 7 7 7 7 7 7 6 6 6 5 5 5 5 5 5 5 5 5 5 4 4 4 4 4
16 15 15 14 14 13 13 12 12 12 12 12 12 12 11 11 11 11 11 10 10 10 10 10 10 10 10 9 9 9 8 8 8 8 8 8 8 7 7 7 7 7 7 7 7 7 7 7 7 7 7 6 6 6 5 5 5 5 5 5 5 5 5 4 4 4 4 4 4
16 16 15 15 14 13 13 13 13 13 13 12 12 12 12 11 11 11 10 10 10 11 10 10 10 10 10 9 9 9 8 8 8 8 8 8 8 8 7 7 8 8 7 7 7 7 7 7 7 7 7 6 6 6 5 5 5 5 5 5 5 5 5 5 4 4 4 4 4
16 16 15 15 14 13 13 13 13 13 13 13 13 12 12 11 11 10 10 10 10 11 10 10 10 10 9 9 9 8 8 8 8 8 8 8 8 8 7 7 8 8 7 7 7 7 7 7 7 7 7 6 6 6 5 5 5 5 5 5 5 5 5 5 5 4 4 4 4
16 16 15 15 14 14 13 13 13 13 13 13 13 12 12 11 10 10 10 10 10 10 10 10 10 9 9 9 9 8 8 8 8 8 8 8 8 8 7 8 8 8 7 7 7 6 6 6 6 7 7 6 6 6 6 5 5 5 5 5 5 5 5 5 5 4 4 4 4
16 16 15 15 14 14 14 13 13 13 13 13 12 12 11 10 10 9 9 9 10 10 10 10 9 9 9 8 8 8 8 8 8 8 8 8 8 8 8 8 8 8 7 7 7 7 6 6 6 6 6 6 6 6 6 6 5 5 5 5 5 5 5 5 5 5 4 4 4
16 16 15 15 14 14 14 14 14 14 13 13 12 11 10 10 9 9 9 9 9 10 10 10 9 9 9 8 9 9 9 8 8 8 8 8 8 8 8 8 8 8 7 7 7 7 6 6 6 6 6 6 6 6 6 6 5 5 5 5 5 5 5 5 5 5 5 4 4
16 16 15 15 15 14 14 14 14 13 13 12 12 11 10 9 9 9 9 9 9 10 10 9 9 9 9 9 9 8 8 8 8 8 8 8 8 8 8 8 8 7 7 7 7 7 7 6 6 6 6 6 6 6 6 6 5 5 5 5 5 5 5 5 5 5 5 5 4
16 16 15 15 14 14 14 14 14 13 12 12 11 11 10 9 9 9 9 9 9 10 10 9 9 9 9 9 8 8 7 7 7 8 8 8 8 8 8 8 8 7 7 7 7 7 7 7 6 6 6 6 6 6 6 6 6 5 5 5 5 5 5 5 5 5 5 5 4
16 16 15 14 14 14 14 13 13 12 12 12 11 11 10 9 9 9 9 9 10 10 10 10 10 10 9 8 7 7 7 7 8 8 8 8 8 8 8 8 8 8 7 7 7 7 7 7 6 6 6 6 6 6 6 6 6 5 5 5 5 5 5 5 5 5 5 4 4
15 15 14 14 13 13 13 12 12 12 12 11 11 11 10 10 9 9 10 9 10 10 10 10 10 10 9 8 7 7 7 7 8 8 8 8 8 8 8 8 8 8 8 7 7 7 7 7 7 6 6 6 6 6 6 6 6 6 5 5 5 5 5 5 5 5 4 4 4
14 14 13 13 12 12 12 12 11 11 11 11 11 11 10 10 10 9 9 9 9 10 10 10 10 10 9 8 8 7 7 8 8 8 8 8 8 8 8 8 8 8 8 8 7 7 7 7 7 6 6 6 6 6 6 6 6 6 6 6 5 5 5 5 5 5 4 4 4
13 13 12 12 12 12 11 11 11 11 11 11 11 11 10 10 9 9 9 9 9 9 10 10 10 10 10 9 8 8 8 8 8 8 8 7 8 8 8 8 8 8 8 8 7 7 7 7 6 6 6 6 6 6 6 6 6 6 6 6 6 5 5 5 5 5 4 4 4
12 12 12 12 11 11 11 11 11 10 10 10 11 11 10 10 9 9 9 9 9 9 9 9 10 10 9 9 8 8 8 8 8 8 8 7 7 8 8 8 8 8 8 7 7 7 7 7 6 6 6 6 6 6 6 6 6 6 5 5 5 5 5 5 5 5 4 4 4
11 11 11 11 11 11 11 10 10 10 10 10 10 10 10 9 9 9 9 8 8 8 9 9 9 9 9 8 8 8 8 8 8 8 8 8 8 8 8 8 8 7 7 7 7 7 7 7 7 6 6 6 6 6 6 6 6 5 5 5 5 5 5 5 5 5 4 4 4
11 11 11 11 11 11 11 10 10 10 10 10 10 10 10 9 9 9 9 8 8 8 8 8 8 8 8 8 8 7 7 8 8 8 8 8 8 8 8 8 8 7 7 7 7 7 7 7 7 7 6 6 6 6 6 6 6 5 5 5 5 5 5 5 5 5 4 4 4
11 11 11 11 11 11 11 11 10 10 10 10 10 10 10 10 9 9 8 8 8 8 8 8 8 8 7 7 7 7 7 8 8 8 8 8 8 8 8 8 8 7 7 7 7 7 7 7 7 7 6 6 6 5 6 6 5 5 5 5 5 5 5 4 5 5 5 4 4
11 12 12 12 12 12 11 11 11 11 10 10 10 10 10 9 9 9 8 8 8 8 8 8 7 7 7 7 7 7 7 8 8 7 7 8 8 8 8 8 8 7 7 7 7 7 7 7 7 6 6 6 6 5 5 5 5 5 5 5 5 5 4 4 4 4 5 4 4
12 12 12 12 12 12 12 11 11 11 11 10 10 10 10 9 9 9 9 9 8 8 8 8 7 7 7 7 7 7 7 8 7 7 7 8 8 8 8 8 8 7 7 7 7 7 7 7 7 6 6 6 6 5 5 5 5 5 5 5 5 5 5 4 4 4 4 5 4
12 12 12 12 12 12 12 12 11 11 11 10 10 10 9 9 9 9 9 9 9 8 8 8 7 7 7 7 7 7 8 8 7 7 7 8 8 8 8 8 8 7 7 7 7 7 7 7 7 6 6 6 6 5 4 4 5 5 5 5 5 5 4 4 4 4 4 4 4
12 12 12 12 12 12 12 12 11 11 11 10 10 9 9 9 9 9 9 9 9 8 8 8 7 7 7 8 8 8 8 7 7 7 7 7 8 8 8 8 7 7 7 7 7 7 7 7 6 6 6 6 6 5 4 4 4 4 5 5 5 5 4 4 4 4 4 4 4
12 12 12 12 12 12 12 12 11 11 11 10 10 9 9 10 9 9 9 9 9 8 8 8 7 7 8 8 8 8 8 7 7 7 7 7 7 8 8 7 7 7 7 7 7 7 7 7 6 6 6 6 5 5 4 4 3 4 4 5 5 4 4 4 4 4 4 4 4
12 12 12 12 12 12 12 11 11 11 10 10 10 10 10 10 10 10 9 9 8 8 8 7 7 8 8 8 8 8 8 7 7 7 7 7 7 7 7 7 7 7 7 7 7 7 7 6 6 6 6 6 5 5 4 3 3 4 4 4 4 4 4 4 4 3 3 3 4
12 12 12 12 12 12 11 11 11 10 10 10 10 10 10 10 10 10 9 9 8 8 7 7 7 8 8 8 8 8 7 7 7 7 7 7 7 7 7 7 7 7 7 7 7 7 7 6 6 6 6 5 5 4 4 3 3 4 4 4 4 4 4 4 3 3 3 3 3
12 12 12 12 12 11 11 11 10 10 10 10 10 10 10 10 10 9 9 9 8 8 8 8 8 8 8 8 7 7 7 7 7 7 7 7 7 7 7 7 7 7 7 7 7 7 7 6 6 6 6 5 5 4 4 3 3 4 4 4 4 4 4 4 3 3 3 3 3
12 12 11 11 11 11 11 11 10 10 10 10 9 9 9 10 10 9 9 8 8 8 8 8 8 8 7 7 7 7 7 7 7 7 7 7 7 7 7 7 7 7 7 7 7 7 7 6 6 6 6 5 5 4 4 3 4 4 4 4 4 4 4 4 4 3 3 3 3
12 11 11 11 11 11 11 10 10 10 10 9 9 9 9 9 9 9 9 8 8 8 8 8 8 8 7 7 7 7 7 7 7 7 8 7 7 7 7 7 7 7 7 6 6 7 6 6 6 6 6 5 5 4 4 4 4 4 4 4 4 4 4 4 4 4 3 3 3
11 11 11 10 11 11 10 10 10 10 9 9 9 9 9 9 9 9 9 8 8 9 9 8 8 8 7 7 7 7 7 7 7 7 7 7 7 7 7 7 7 7 6 6 6 6 6 6 6 6 6 5 5 4 4 4 4 4 4 4 4 4 4 4 4 4 4 3 2
11 11 10 10 10 10 10 10 10 9 9 9 9 9 9 9 9 9 9 8 9 9 9 9 8 8 8 7 7 7 7 7 7 7 7 7 7 6 6 6 6 6 6 6 6 6 6 6 6 6 5 5 4 4 3 3 4 4 4 4 4 5 5 4 4 4 4 3 2
10 10 10 10 10 10 10 10 10 9 9 9 9 9 9 9 9 9 9 8 9 9 9 9 8 8 7 7 7 7 7 7 7 7 7 6 6 6 6 6 6 6 6 6 6 6 6 6 5 5 5 5 4 4 3 3 4 4 4 4 4 5 5 5 4 4 4 3 3
Height
822 822 823 825 829 831 833 834 835 836 837 837 838 839 840 841 842 843 844 844 845 845 846 848 849 850 851 852 853 854 855 857 858 859 861 862 862 863 863 863 863 863 864 865 865 866 867 867 867 868 868 868 869 869 869 869 869 870 870 870 871 871 871 872 872 872 872 872 872
820 821 822 823 826 829 832 833 834 835 835 836 837 837 838 840 841 842 842 842 843 844 845 847 849 851 852 852 853 854 855 857 857 859 860 862 862 862 863 863 863 863 863 864 864 865 865 866 866 867 867 868 868 868 868 868 869 869 869 870 870 870 871 871 871 871 872 872 872
818 819 820 821 823 826 830 832 833 833 834 834 835 836 837 838 839 840 840 840 841 843 844 846 848 850 851 852 853 854 855 856 857 858 859 861 862 862 862 862 863 863 863 863 863 864 864 865 865 866 866 867 867 867 868 868 868 869 869 869 869 870 870 870 870 871 871 871 871
817 818 819 820 821 823 827 830 831 832 832 833 834 836 837 837 838 838 838 839 840 842 843 845 847 848 850 851 852 853 854 855 856 857 858 860 861 861 862 862 862 862 862 863 863 863 863 863 864 865 865 866 867 867 867 867 868 868 868 869 869 869 869 869 870 870 870 870 870
815 816 817 818 818 820 823 827 829 831 832 833 833 834 835 836 836 837 837 838 839 840 842 843 845 847 848 849 851 852 853 854 855 857 857 858 859 860 861 861 861 862 862 862 862 862 862 863 863 864 864 865 866 866 867 867 867 867 868 868 868 868 868 869 869 869 869 869 869
813 814 816 816 817 818 820 823 827 829 831 831 832 832 833 834 834 834 835 836 838 839 841 842 844 845 847 848 850 851 852 853 854 855 857 857 858 859 859 860 860 860 861 861 861 862 862 862 862 863 864 864 865 866 866 866 867 867 867 867 867 868 868 868 868 868 868 868 868
812 813 814 815 816 817 818 821 825 827 829 830 830 831 831 831 832 832 834 836 837 839 841 842 843 844 845 847 849 850 851 852 853 854 855 856 857 857 858 858 859 859 859 860 860 861 861 861 862 862 863 863 864 865 865 865 866 866 866 867 867 867 867 867 867 867 867 867 867
810 811 812 813 814 815 817 819 822 825 827 827 828 828 829 829 830 832 833 835 837 839 840 841 842 843 844 846 847 849 850 851 852 853 854 855 856 856 857 857 857 858 858 859 859 860 860 860 861 861 862 862 863 863 864 864 865 865 865 866 866 866 866 866 866 866 866 866 867
808 809 810 811 812 814 816 817 820 823 825 825 826 827 827 828 829 831 833 834 836 837 838 839 841 842 843 845 846 847 849 850 851 852 853 853 854 855 856 856 857 857 857 858 858 859 859 859 859 860 861 861 862 862 862 863 863 864 864 865 865 865 865 865 865 865 865 866 866
806 807 808 810 811 812 814 816 819 821 822 823 824 825 826 827 828 830 831 832 834 835 837 838 840 841 842 844 845 847 848 849 850 851 852 852 853 854 854 855 856 856 857 857 857 858 858 858 858 859 859 860 860 861 861 862 862 863 863 864 864 864 864 864 864 864 864 864 865
804 805 807 808 809 810 812 814 816 818 820 821 822 823 824 825 827 828 830 831 832 833 835 837 838 840 841 843 844 845 847 848 849 850 851 852 852 853 854 854 855 856 856 856 857 857 857 857 857 857 858 858 859 859 860 860 861 862 862 862 862 863 863 863 863 863 863 863 863
802 804 805 806 807 809 810 812 814 816 817 819 820 822 823 824 825 827 829 830 831 832 834 836 837 838 840 842 843 844 846 847 848 849 850 852 852 853 854 854 855 855 855 855 856 856 856 856 856 856 857 857 857 858 858 859 860 861 861 861 862 862 862 862 862 862 862 862 862
801 802 804 805 806 807 809 810 812 813 815 817 819 820 822 823 825 826 828 829 830 832 834 835 836 838 839 841 842 843 844 846 847 848 850 851 852 853 854 854 854 854 854 854 854 854 854 855 855 855 855 856 856 857 857 858 858 859 860 860 860 860 860 860 861 861 861 861 861
800 801 802 804 805 806 807 809 810 812 814 816 817 819 821 822 824 826 827 829 831 832 834 835 836 837 838 840 841 842 843 845 846 847 849 850 852 853 853 853 853 853 853 853 853 853 853 853 853 854 854 854 855 855 856 856 857 858 858 858 859 859 859 859 859 859 860 860 860
798 800 801 802 803 805 806 807 809 811 812 814 817 818 820 822 823 825 827 829 831 832 834 835 836 837 838 839 840 841 842 843 844 846 847 848 850 851 852 852 852 852 851 851 851 852 852 852 852 852 853 853 853 854 855 855 856 857 857 857 857 857 857 858 858 858 858 858 858
797 798 799 801 802 803 805 806 808 810 812 813 816 817 819 820 822 824 827 829 831 832 833 833 834 836 837 838 838 839 840 842 843 844 845 847 848 849 849 850 850 850 850 850 850 850 850 851 851 852 852 852 852 853 853 854 855 855 856 856 856 856 856 856 857 857 857 857 857
795 797 798 799 800 802 803 805 807 808 810 812 814 816 817 819 821 823 825 827 829 830 831 832 833 834 835 836 837 838 839 840 841 842 843 845 846 847 847 848 848 848 848 848 848 849 849 850 850 850 851 851 852 852 852 853 853 854 854 854 854 855 855 855 855 855 855 855 855
794 795 797 798 799 800 802 804 806 807 809 811 812 814 815 817 819 821 823 824 826 827 829 830 831 832 832 833 835 836 838 839 840 841 842 843 844 845 846 846 847 847 847 847 847 847 848 849 849 849 849 850 850 851 852 852 852 852 853 853 853 853 853 853 853 853 853 854 854
792 794 795 797 798 799 801 803 805 806 807 809 810 812 813 815 817 818 820 822 823 825 827 828 828 829 830 832 833 835 837 837 839 839 840 841 842 843 844 845 845 845 846 846 846 847 847 847 847 848 848 848 849 850 850 851 851 851 851 851 851 851 852 852 852 852 852 852 852
791 793 794 796 797 799 800 802 803 805 806 807 808 810 811 812 814 815 817 818 820 821 823 824 826 827 828 830 832 833 835 836 837 838 839 840 841 842 843 843 844 844 844 845 845 846 846 846 846 846 847 847 848 848 849 849 849 849 849 849 849 850 850 850 850 850 850 850 850
790 792 793 795 797 798 799 801 802 803 804 805 806 808 809 810 811 812 813 815 816 817 819 821 822 824 826 828 830 832 833 835 836 837 838 839 840 840 841 842 842 843 843 844 844 844 844 845 845 845 845 846 846 847 847 848 848 848 848 847 847 848 848 848 848 848 848 848 849
789 791 792 794 795 797 798 799 800 801 802 803 805 806 807 808 809 810 811 812 813 815 817 818 820 821 823 825 827 830 832 833 834 835 836 837 838 839 840 841 841 842 842 842 843 843 843 843 843 843 844 844 845 846 846 846 846 846 846 846 846 846 846 846 846 847 847 847 847
788 789 791 792 794 795 797 798 799 800 801 802 804 805 806 807 808 809 810 811 812 813 814 816 817 819 821 823 825 828 830 831 832 833 834 836 837 838 839 839 840 840 841 841 841 842 842 842 842 842 842 843 843 844 844 845 845 845 844 844 844 844 844 844 844 844 845 845 845
787 788 790 791 792 794 795 797 798 799 800 801 802 804 805 806 807 809 810 810 811 812 813 815 816 817 819 822 823 826 827 829 830 831 833 834 835 837 837 838 838 839 839 839 840 840 840 840 840 841 841 842 842 842 843 843 843 843 843 843 842 842 842 842 842 842 843 843 843
786 787 789 790 792 792 794 795 796 797 798 800 801 802 804 805 807 808 809 810 811 812 812 814 815 816 818 820 822 824 825 827 828 830 831 833 834 835 836 837 837 837 838 838 838 837 838 838 838 839 840 840 841 841 841 841 841 841 841 841 841 841 841 841 841 841 841 841 841
785 787 788 789 790 791 792 793 794 795 797 798 800 801 802 804 805 807 808 809 810 811 812 813 814 815 817 818 820 822 824 825 827 828 830 832 833 834 835 836 836 836 836 836 836 836 836 836 837 837 838 839 839 839 840 840 840 839 839 839 839 839 839 839 839 839 838 838 838
784 786 787 787 789 790 790 792 793 794 795 797 798 799 801 802 804 805 806 807 809 810 812 813 814 815 816 817 819 821 823 824 826 827 829 831 832 833 833 834 834 834 834 834 834 834 834 835 835 836 836 837 838 838 838 838 838 838 838 837 837 837 837 837 837 837 837 836 836
783 784 785 786 787 788 789 790 792 793 794 796 797 798 800 801 802 803 805 806 807 809 811 812 813 814 815 817 818 820 822 823 825 826 828 829 831 831 832 832 832 832 832 832 832 832 833 833 834 834 835 835 836 836 837 837 837 836 836 836 836 835 835 835 835 835 835 834 834
781 782 784 785 786 787 788 789 791 792 793 795 796 797 799 800 801 802 803 805 806 808 809 810 812 813 814 816 817 819 821 822 823 825 827 828 829 830 830 831 831 831 831 831 831 831 832 832 832 833 833 833 834 834 835 835 835 835 834 834 833 833 833 833 833 833 833 832 832
780 782 783 784 785 786 787 788 789 791 792 794 795 797 798 799 800 801 802 803 805 806 807 808 810 812 813 815 817 818 820 821 822 824 825 827 827 828 828 829 829 829 829 829 830 830 831 831 831 831 832 832 832 832 833 833 833 832 832 832 831 831 831 831 831 831 831 831 830
779 780 782 783 784 785 786 787 789 790 792 793 794 795 797 797 798 799 801 802 803 804 806 807 808 810 812 814 816 817 819 820 821 822 824 825 826 826 827 827 828 828 828 828 828 829 829 829 830 830 830 830 830 831 831 831 831 831 830 830 829 829 829 828 828 828 828 828 828
778 779 781 782 783 784 785 787 788 790 791 792 793 794 795 797 797 799 800 801 802 804 805 806 808 809 811 813 814 816 817 818 820 821 822 823 824 825 826 826 826 827 827 827 827 827 827 828 828 828 828 828 828 828 828 828 828 828 828 827 827 827 827 826 826 826 826 826 826
777 778 779 781 782 783 785 786 787 789 790 791 792 793 795 796 797 799 800 801 802 803 804 805 807 808 810 812 813 814 816 817 818 819 820 821 822 823 824 825 825 825 825 825 825 826 826 826 826 826 826 826 826 825 825 825 826 826 826 825 825 824 824 824 824 823 823 823 823
776 777 779 780 781 782 784 785 787 788 789 790 792 792 794 795 797 798 799 800 801 802 803 804 805 807 808 810 812 813 814 816 817 817 819 820 821 822 822 823 823 824 824 824 824 824 824 824 824 824 824 824 823 823 823 823 823 823 823 822 822 822 822 821 821 821 821 821 821
775 777 778 779 780 782 783 784 786 787 788 790 791 792 793 795 796 797 798 799 800 802 803 804 805 807 808 810 811 812 814 815 815 816 817 819 820 820 821 821 822 822 822 822 822 822 822 822 822 822 822 822 821 821 821 821 821 821 820 820 820 819 819 818 818 818 818 818 818
775 776 777 778 780 781 782 784 785 786 787 789 790 791 793 794 795 797 798 799 800 801 802 804 805 807 808 809 810 812 812 813 814 815 816 817 818 819 819 820 820 821 821 821 821 821 821 821 821 821 820 820 819 819 819 819 819 818 818 817 817 817 816 816 816 816 815 815 815
774 775 777 778 779 781 782 783 784 786 787 788 789 791 792 793 795 796 797 798 799 801 802 803 805 806 807 807 809 810 811 812 813 814 814 815 816 817 817 818 819 819 819 819 819 819 819 819 819 819 818 818 817 817 817 817 817 816 816 815 815 814 814 814 813 813 812 812 812
774 775 776 777 779 780 781 782 784 785 786 787 789 790 792 793 794 795 796 797 798 800 801 802 803 804 805 806 807 808 810 811 812 812 813 814 814 815 816 817 817 818 818 817 817 817 817 817 817 817 817 816 816 816 816 816 815 814 814 813 812 812 812 811 811 810 810 809 809
773 774 776 777 778 780 781 782 783 784 786 787 788 790 791 792 793 794 795 797 797 798 800 801 802 803 804 805 807 807 808 809 810 811 812 812 813 814 815 816 816 816 816 816 815 815 815 815 815 815 814 814 814 814 814 814 813 812 812 811 810 810 809 809 808 808 807 807 806
773 774 775 777 778 779 780 782 783 784 785 787 788 789 790 792 792 794 795 796 797 798 799 800 801 802 803 805 806 807 807 808 809 810 811 811 812 813 813 814 814 814 814 814 813 813 813 813 813 813 812 812 812 812 812 812 811 810 809 809 808 807 807 807 806 806 805 804 803
772 774 775 777 778 779 780 781 782 784 785 786 787 789 790 791 792 793 794 795 796 797 798 799 800 802 802 803 805 806 807 808 808 809 810 810 811 811 811 812 812 812 812 812 812 812 811 811 811 811 810 810 810 810 810 809 809 808 807 807 806 805 805 804 804 803 802 802 802
Wind_Speed
26 28 27 25 21 19 18 17 17 18 20 21 20 20 20 20 20 19 19 18 19 20 22 23 23 22 21 22 22 20 18 17 17 17 16 15 14 14 14 14 14 14 13 12 11 11 10 10 9 8 8 8 8 8 8 7 8 8 8 8 7 7 7 7 6 6 5 5 4
27 29 28 27 23 19 17 16 17 19 20 21 21 21 21 21 20 19 19 19 20 21 22 22 21 19 19 20 20 19 17 17 17 17 16 15 15 15 15 14 14 13 12 12 11 11 11 11 10 9 8 8 8 8 8 8 8 8 9 8 8 7 7 7 6 6 6 5 4
27 28 28 27 25 21 18 17 18 20 21 21 22 21 21 21 19 19 19 21 22 23 22 21 20 18 18 19 19 18 17 17 18 18 17 16 15 15 15 14 14 13 12 12 12 12 11 11 10 9 8 8 8 8 8 8 8 9 9 9 8 7 7 7 7 7 6 5 5
26 28 29 28 26 22 19 18 19 21 22 22 22 21 20 20 19 19 20 22 23 23 22 21 19 18 18 19 19 18 17 18 19 18 17 16 16 16 15 14 13 13 12 12 12 12 11 11 10 8 8 8 8 8 8 8 9 9 8 8 8 7 7 7 7 7 6 6 5
26 27 29 29 27 24 21 19 20 22 23 22 22 21 20 20 19 19 21 22 24 23 22 21 19 18 18 19 20 19 18 19 19 18 17 17 16 16 15 14 13 13 12 12 12 12 11 10 9 8 7 7 7 8 8 8 9 9 8 8 8 7 7 7 7 7 6 6 6
25 27 28 29 26 24 22 21 21 23 24 23 23 22 21 21 21 22 22 23 23 22 21 20 18 18 18 20 20 19 19 20 20 19 17 17 17 16 15 14 13 13 13 12 12 12 11 10 8 7 7 7 7 7 8 9 9 9 8 8 8 8 7 7 7 7 7 6 6
25 26 28 28 26 24 23 21 22 23 25 24 24 23 23 23 23 24 24 22 21 20 20 19 18 18 19 20 20 20 20 20 20 19 18 17 17 16 16 15 14 14 13 13 12 12 11 10 8 7 7 7 7 8 8 9 9 9 8 8 8 8 8 8 8 7 7 7 7
25 26 27 28 26 24 23 22 22 24 25 25 25 24 24 25 24 24 23 21 19 19 19 19 19 19 20 20 21 21 20 20 20 19 18 17 17 17 16 15 14 14 14 13 13 12 11 9 8 7 7 7 7 8 9 10 9 9 9 9 8 8 8 8 8 8 8 8 8
24 25 26 27 25 24 22 22 23 24 26 26 25 25 25 25 24 24 22 20 20 20 20 19 19 20 20 21 21 21 21 20 20 19 18 18 18 17 16 15 15 14 14 13 13 12 11 9 8 8 8 8 8 9 9 10 10 10 9 9 9 9 9 9 9 9 8 8 9
24 25 26 26 25 24 23 23 24 25 26 26 25 25 25 25 24 24 23 22 21 21 21 20 20 20 21 21 21 21 21 20 20 19 19 18 18 17 16 15 15 15 14 13 13 12 11 9 9 8 9 9 9 9 10 10 10 10 10 10 10 10 10 10 10 10 9 9 9
24 25 25 25 25 24 24 24 25 26 27 26 25 25 25 25 25 25 24 22 22 22 22 21 21 21 21 21 21 21 21 20 20 19 18 18 17 16 16 15 15 14 14 13 12 12 11 10 9 9 9 9 9 9 10 11 11 11 11 11 11 11 11 11 11 10 10 10 10
24 24 24 24 24 24 24 25 25 26 27 26 25 24 25 25 25 24 23 22 22 22 22 21 22 22 22 21 21 21 21 20 19 18 17 17 16 15 15 15 14 14 14 13 12 11 11 10 10 10 10 10 9 10 10 11 11 12 12 12 12 12 12 12 12 12 11 11 11
23 23 23 23 23 23 24 25 25 25 25 25 24 24 23 23 24 23 22 21 22 22 21 21 21 22 21 21 21 21 21 20 19 18 16 16 15 15 14 14 14 14 14 13 13 12 11 11 11 11 11 11 10 10 11 11 12 13 13 13 13 13 13 13 13 13 12 12 12
23 23 23 22 22 23 23 24 23 23 24 25 24 23 22 22 22 22 22 21 21 21 20 20 20 21 21 21 21 21 21 21 19 18 16 15 15 15 15 15 15 15 15 14 13 13 12 12 12 11 11 11 11 11 11 12 13 13 14 14 14 14 14 14 14 13 13 13 13
22 22 22 22 22 23 23 23 23 22 23 23 23 22 21 21 21 21 21 20 21 20 19 20 20 20 20 21 21 22 22 22 20 19 17 16 16 16 16 16 16 16 16 15 15 14 13 12 12 12 11 11 11 11 11 12 13 14 14 14 15 15 14 14 14 14 14 14 14
22 22 22 22 22 22 23 23 22 21 22 22 22 21 21 21 21 20 20 20 20 20 20 20 20 20 21 21 22 23 23 22 20 19 18 17 18 18 18 18 17 17 16 16 15 14 14 13 13 12 11 11 11 11 11 12 13 14 14 14 14 14 14 14 14 14 15 15 15
22 22 22 22 23 23 23 22 21 20 21 21 21 21 22 22 21 21 21 21 21 21 21 21 21 22 22 23 24 24 23 22 20 18 18 19 20 20 19 19 18 18 17 16 15 15 15 14 13 12 11 11 11 11 11 12 13 14 14 14 14 14 14 15 15 15 15 15 16
22 22 22 22 23 23 22 22 21 20 20 21 22 23 23 23 23 23 23 23 24 23 23 23 23 24 25 25 25 24 22 21 20 19 20 20 21 20 19 19 18 18 17 16 16 15 15 14 13 13 12 12 11 11 12 12 13 14 14 14 14 15 15 15 15 15 15 15 16
21 21 21 21 22 22 22 21 21 20 21 22 23 24 24 24 24 25 25 26 27 27 26 26 26 26 27 26 24 23 22 21 20 21 21 21 20 20 19 19 18 18 17 16 16 15 15 15 14 13 13 12 12 12 12 13 13 14 14 15 15 15 16 16 16 15 15 15 15
20 20 20 20 20 20 20 21 20 21 22 23 25 26 26 26 27 27 28 30 32 32 31 30 29 28 27 25 24 23 22 22 22 22 22 21 20 19 19 19 18 18 17 16 16 16 15 15 14 14 14 13 13 13 13 14 14 15 15 15 16 16 16 16 16 16 16 16 16
19 19 19 18 18 18 19 20 20 21 23 25 26 27 27 27 29 30 31 33 35 35 34 33 32 30 27 25 24 23 23 22 23 23 22 20 19 19 19 19 18 17 17 16 16 16 16 15 15 14 14 14 14 14 14 15 15 15 16 16 16 16 17 17 17 16 17 16 16
18 18 18 18 18 19 20 20 21 22 24 26 27 27 27 28 29 30 32 34 37 37 36 34 32 29 27 25 24 24 23 24 25 24 22 19 19 19 19 18 18 17 17 17 16 16 16 15 15 15 15 15 15 15 16 15 16 16 16 17 17 17 17 17 17 17 17 17 17
18 19 19 19 19 20 20 21 22 23 24 25 26 27 27 28 28 29 31 34 36 37 37 35 32 29 25 24 23 24 25 27 27 25 22 20 19 19 18 18 17 17 17 16 16 16 16 15 15 15 16 16 16 16 16 16 16 16 16 17 17 17 17 17 17 17 17 17 17
20 20 20 19 19 20 20 21 22 23 23 24 25 26 26 26 26 26 29 32 34 36 36 35 31 27 23 22 22 24 27 28 28 26 23 21 19 18 18 17 17 17 17 16 17 17 16 16 15 15 16 16 16 17 17 17 17 17 17 17 17 17 17 17 17 17 17 17 17
20 20 19 19 20 20 21 22 23 23 24 24 25 26 26 25 25 25 27 29 32 33 34 33 30 25 22 22 23 26 28 29 28 26 23 21 19 18 17 17 17 16 16 17 18 19 19 18 17 16 15 16 16 16 17 17 17 17 17 17 17 17 17 17 17 17 18 18 18
19 19 20 21 21 22 22 23 24 24 24 25 25 26 26 25 24 25 26 28 29 30 30 29 27 25 24 24 26 28 29 29 27 25 22 20 18 18 18 17 16 16 17 19 20 20 19 19 18 18 17 16 16 16 16 17 17 18 18 18 17 17 17 17 17 18 18 18 18
19 20 21 22 22 22 23 23 24 24 24 24 25 26 26 25 25 25 27 27 28 28 27 25 24 25 25 26 27 28 28 28 26 24 20 19 19 19 18 17 17 18 19 21 20 19 18 18 18 19 19 18 17 16 16 16 17 17 17 18 18 18 18 18 18 18 18 18 18
19 20 21 21 21 22 22 22 23 23 23 24 24 25 25 25 25 26 28 28 28 27 25 23 22 24 25 25 26 27 27 27 25 21 19 18 19 19 19 18 17 19 21 21 20 18 17 17 18 19 20 21 20 18 17 16 16 16 17 17 18 18 19 19 19 18 18 18 18
19 19 19 20 20 20 21 21 21 22 22 22 23 24 24 25 26 27 28 27 27 27 25 23 23 23 23 23 25 26 26 25 22 19 18 19 19 19 19 18 17 18 20 20 19 18 18 18 18 19 21 22 23 21 18 17 17 16 16 16 17 18 18 19 19 19 18 18 18
18 18 18 19 19 20 20 20 21 21 21 21 22 23 24 25 26 27 27 27 27 27 26 25 24 23 23 23 24 25 23 22 19 18 19 20 20 19 19 18 17 17 18 20 19 18 18 18 18 19 20 22 24 24 22 19 18 18 17 17 17 17 19 20 20 19 19 18 18
18 18 18 18 19 19 19 20 20 20 20 20 21 22 23 24 25 26 26 26 26 27 26 25 24 24 24 25 25 24 22 20 19 19 19 20 20 19 19 18 17 17 17 19 19 19 18 17 18 18 19 20 23 25 25 22 20 19 19 18 17 18 19 20 20 20 20 20 19
17 17 18 18 18 18 18 19 19 19 20 20 20 21 22 22 23 23 24 24 25 25 25 24 24 24 25 25 25 24 22 21 20 20 20 20 19 19 18 18 17 16 17 19 19 19 18 18 18 18 18 19 20 23 24 25 22 21 20 20 19 19 20 20 20 21 21 20 20
17 17 17 17 17 17 17 18 18 19 19 19 20 20 21 21 21 21 21 21 22 23 24 24 24 25 26 25 24 23 21 20 20 20 20 20 20 19 18 17 15 16 17 19 19 19 19 19 19 18 18 18 19 20 22 23 22 21 20 20 20 21 22 22 22 22 22 22 21
16 16 17 17 17 17 17 17 18 18 18 18 19 19 20 20 19 19 19 19 20 21 23 24 24 25 26 25 23 21 20 19 19 19 20 20 19 18 17 16 14 15 17 18 19 19 19 19 19 18 18 17 18 19 20 20 20 20 20 21 21 23 24 24 24 23 23 23 22
16 16 16 16 16 16 16 16 17 17 18 18 18 18 18 18 18 18 18 18 18 19 20 22 23 23 23 22 21 19 18 18 18 18 19 19 19 18 17 17 16 16 17 18 19 19 19 19 18 18 17 17 17 18 18 18 19 20 21 22 23 24 24 25 24 24 24 24 23
15 15 15 15 15 15 15 16 16 16 17 17 17 17 17 17 17 17 17 17 17 17 18 19 19 19 19 18 19 18 18 17 18 19 20 20 18 17 17 17 17 17 17 18 19 19 19 19 18 18 18 17 17 17 17 17 18 19 20 21 22 23 23 23 23 23 23 23 23
14 14 14 14 14 14 14 15 15 16 16 16 16 16 16 16 16 15 15 16 16 17 18 18 18 18 18 18 18 18 18 18 19 20 20 20 19 17 16 16 15 15 16 17 18 18 18 19 19 19 19 18 17 16 16 16 16 17 18 20 21 22 22 22 22 22 22 23 23
14 14 14 14 14 14 14 14 14 15 15 15 15 15 15 15 15 15 15 16 17 17 18 18 18 18 19 19 18 18 18 19 20 20 20 19 18 17 15 14 14 13 13 15 17 18 18 19 19 19 20 19 18 16 15 15 15 16 17 18 19 20 20 20 20 20 21 22 23
13 14 14 14 13 13 13 13 14 14 14 14 14 14 14 14 14 14 15 15 16 17 18 18 18 18 18 18 17 17 18 19 20 19 19 17 16 15 14 14 13 13 13 15 17 18 19 19 19 20 20 20 19 17 15 15 15 16 17 18 19 19 19 19 19 19 19 21 23
13 13 13 13 13 13 13 13 13 13 13 13 13 13 13 14 14 14 14 15 15 16 16 17 17 17 17 17 16 16 17 18 18 18 17 15 14 14 15 15 15 15 16 17 18 19 20 20 20 20 20 20 19 18 16 15 15 17 18 18 19 19 19 19 19 18 18 19 21
12 12 12 12 12 11 11 11 11 11 11 12 12 12 13 13 13 13 13 14 14 15 15 15 15 15 16 16 16 15 15 14 14 14 13 14 14 15 16 17 17 17 17 18 19 20 20 20 20 20 20 20 20 18 16 15 16 17 18 19 19 19 19 19 18 18 17 17 18
Wind_Direction
186 185 183 182 185 188 191 193 192 191 190 189 188 188 187 187 187 187 187 186 186 185 185 185 185 185 185 185 184 184 184 185 185 184 183 183 182 179 174 170 170 170 169 168 170 171 173 173 171 171 172 174 175 176 177 179 179 179 178 176 175 175 177 178 179 179 178 175 172
188 188 185 181 182 188 194 197 195 193 191 190 190 190 189 190 190 189 189 188 186 184 184 184 185 186 186 186 185 184 184 184 183 182 182 183 182 178 174 172 172 171 170 170 171 171 172 173 172 171 172 174 177 179 179 180 182 182 181 179 178 179 182 184 185 183 183 183 183
189 189 187 183 181 186 196 200 199 196 193 192 193 193 192 192 192 191 191 190 188 185 183 183 184 186 186 186 185 184 184 183 182 180 180 182 180 178 175 174 173 172 173 173 173 172 172 172 172 172 173 177 179 181 182 183 185 186 184 183 182 183 186 188 187 187 189 192 193
190 189 187 186 183 185 194 203 202 198 196 197 197 196 195 196 194 193 192 191 189 186 184 183 183 184 185 185 185 185 184 183 181 179 179 180 179 178 176 175 174 175 175 176 175 174 173 172 171 173 176 180 183 184 185 185 187 187 187 187 187 189 190 191 191 192 195 198 199
190 190 189 188 187 187 192 201 203 203 202 200 199 198 198 197 194 192 190 189 188 187 185 183 181 181 182 185 185 185 184 183 181 179 178 179 178 178 177 176 176 176 176 177 177 176 174 172 171 174 178 182 186 188 189 187 188 189 189 190 192 194 195 195 195 197 200 203 204
190 190 191 192 192 190 190 195 203 206 206 203 200 199 198 196 195 192 189 187 187 186 183 181 179 179 180 183 184 184 183 182 181 180 178 178 178 178 177 177 178 177 177 178 178 177 176 174 172 174 178 183 187 190 190 189 190 192 193 193 196 199 200 200 201 204 207 208 209
191 191 193 194 195 193 191 194 203 207 207 205 203 201 200 198 195 193 190 187 185 183 181 180 179 179 180 182 182 182 182 181 181 180 179 177 177 178 178 179 179 179 178 179 178 178 177 175 174 174 178 183 189 192 193 192 194 196 197 199 200 203 205 206 206 208 211 213 213
193 193 194 196 197 196 194 196 202 205 206 206 204 202 201 199 196 192 188 185 182 181 181 180 180 180 181 181 181 181 181 180 180 179 178 178 178 179 180 180 180 180 179 180 179 178 177 176 176 177 181 186 190 192 193 194 197 200 203 205 205 206 208 209 210 211 214 216 216
194 194 196 197 198 198 197 199 202 204 206 206 205 203 202 200 195 190 187 184 183 182 181 181 181 182 181 180 180 180 180 180 180 179 179 179 180 180 181 181 181 181 181 181 181 180 178 178 179 182 185 189 192 193 193 195 199 204 208 211 211 211 212 213 214 216 218 219 219
195 195 196 198 200 199 199 201 203 205 206 206 204 203 201 199 194 191 188 186 184 183 182 182 182 181 181 180 180 180 180 180 180 180 180 181 181 181 181 181 182 181 181 181 182 181 180 180 182 185 188 191 193 193 194 197 201 206 211 215 216 216 216 217 218 220 221 222 222
197 197 197 199 200 199 198 199 201 203 205 205 203 201 199 196 193 191 189 186 184 183 182 182 181 180 180 180 180 180 180 180 181 181 181 181 181 182 182 183 183 183 182 182 182 182 183 184 186 189 191 193 194 194 196 199 203 209 214 218 219 219 219 220 221 222 223 225 225
200 199 199 200 200 199 196 196 198 200 202 202 201 199 197 195 193 191 188 186 183 183 183 182 181 180 179 179 180 180 181 181 181 180 180 180 181 183 184 185 185 185 184 183 182 183 184 187 189 191 192 193 194 195 197 201 206 211 216 220 221 221 221 222 223 224 225 226 227
202 201 201 201 199 197 195 195 196 197 199 200 199 198 195 193 192 190 187 185 183 183 183 182 180 179 179 179 180 181 181 181 181 180 179 180 181 184 187 188 188 188 186 185 185 186 186 189 191 193 194 194 195 196 199 203 208 213 217 220 222 222 222 223 224 225 227 228 229
203 202 201 200 197 195 194 194 195 196 197 198 198 196 194 192 189 188 186 185 184 184 182 180 179 179 180 180 181 181 182 181 180 178 178 179 183 187 191 192 192 190 188 188 188 188 189 190 193 194 195 195 196 199 201 205 209 214 218 221 222 223 224 224 225 226 227 228 230
204 202 201 198 195 194 194 194 195 196 196 196 196 194 191 189 187 185 184 184 184 183 181 179 179 179 180 181 182 182 183 182 180 178 179 183 188 192 194 195 194 192 191 192 191 190 191 194 194 195 196 197 198 201 204 207 211 215 219 221 222 223 225 226 226 227 227 228 231
204 202 200 197 195 194 195 194 196 196 195 194 192 189 186 184 182 181 182 183 183 183 181 180 180 180 181 181 183 184 184 184 183 183 185 189 193 196 197 197 196 194 194 195 195 193 193 196 197 197 198 200 201 204 207 210 213 216 219 222 223 225 226 227 228 228 228 228 230
204 202 201 198 196 196 196 195 196 196 193 190 187 184 181 179 178 179 182 184 183 183 181 181 181 181 181 183 185 186 187 187 190 192 194 195 197 197 198 199 198 197 196 198 198 198 197 198 199 200 201 203 206 209 211 213 215 218 220 222 224 226 228 229 229 230 229 229 231
205 203 201 200 198 197 197 197 198 195 190 185 183 181 179 178 179 181 183 184 184 184 183 182 182 183 184 184 187 189 192 195 199 201 201 199 199 198 199 200 199 199 199 200 200 200 200 201 201 202 204 207 210 213 216 217 219 220 221 223 224 226 228 229 230 231 231 231 233
205 203 202 201 200 198 198 199 200 195 187 182 182 181 181 181 183 185 186 186 186 186 185 184 185 186 187 187 190 194 198 202 205 205 203 200 199 199 200 201 201 202 202 202 201 201 202 203 204 206 209 211 213 216 219 220 222 223 223 224 225 226 228 229 231 232 233 234 235
205 203 202 200 199 198 198 199 197 192 186 183 184 185 185 186 188 189 189 188 189 188 187 186 186 187 188 190 195 199 203 206 207 205 202 200 199 200 201 202 203 204 204 204 204 204 205 206 207 210 212 215 216 218 221 223 225 225 225 225 225 227 228 230 231 232 234 235 236
206 205 203 200 197 196 196 196 193 191 189 188 189 189 189 189 191 192 192 191 191 190 189 189 187 187 189 193 198 201 205 207 206 203 200 199 200 202 203 204 205 206 206 206 207 207 208 209 210 212 214 217 219 221 224 226 228 227 226 226 227 228 229 230 231 232 234 235 236
205 203 200 197 196 196 196 194 193 193 192 193 195 195 195 195 195 194 193 192 191 190 190 190 189 190 194 199 201 203 206 208 205 202 200 200 202 204 205 206 206 207 208 208 209 210 211 212 214 215 217 219 222 225 227 229 230 230 229 229 229 229 230 231 231 232 233 235 236
200 199 198 196 197 196 195 195 195 195 195 195 197 198 197 197 196 194 192 191 190 190 190 189 191 195 200 205 204 205 206 207 204 201 200 201 203 206 207 207 208 209 210 211 212 212 213 214 217 219 220 222 226 228 230 231 232 233 233 233 233 233 233 232 232 232 233 235 236
198 198 198 197 196 195 196 197 197 196 196 196 197 197 196 195 193 192 191 190 190 189 188 189 192 198 203 206 205 205 205 204 202 200 200 201 205 207 208 209 210 212 213 213 214 215 215 216 217 220 223 224 229 232 233 233 233 235 236 237 237 237 237 235 233 233 234 236 236
198 197 197 197 196 197 197 198 198 198 197 196 197 197 195 193 191 190 190 190 189 187 187 189 193 198 202 203 204 204 203 201 200 199 200 202 205 208 209 210 211 213 214 216 220 222 224 224 224 223 224 227 231 234 236 235 234 235 236 238 238 240 240 239 236 234 235 236 236
197 196 197 200 199 199 199 199 199 199 198 197 196 196 195 192 190 189 189 189 188 187 187 189 194 197 200 200 200 200 199 199 199 199 200 203 207 209 211 211 212 214 217 221 226 231 234 236 236 234 231 231 234 237 238 238 236 235 236 237 238 239 240 241 239 237 236 236 236
196 198 202 204 203 201 200 200 201 200 199 197 196 195 193 191 189 189 188 188 188 187 188 190 193 196 197 197 196 195 195 197 198 199 200 204 208 211 211 212 214 217 222 227 233 237 240 243 244 243 240 237 237 239 242 242 239 237 236 237 238 239 239 241 242 241 239 237 236
196 200 203 204 202 201 201 201 200 199 198 197 196 194 192 190 189 188 188 188 187 187 188 189 192 194 194 192 192 192 194 196 197 198 202 208 212 213 213 214 216 222 228 234 239 242 245 246 247 248 247 244 241 240 242 244 243 240 238 238 239 240 241 242 243 243 242 240 236
198 199 200 201 201 201 200 199 197 197 197 196 194 193 191 189 189 188 188 188 187 188 189 190 192 192 191 189 190 192 193 195 196 199 205 211 214 215 215 216 219 225 233 240 244 247 248 249 251 252 252 250 247 244 243 245 246 245 243 240 240 241 243 244 244 244 244 243 239
198 199 200 201 202 202 201 200 198 198 196 195 194 192 192 191 191 190 188 188 189 190 191 192 192 191 190 189 190 191 192 194 198 203 209 213 215 216 217 219 221 226 235 243 247 250 252 253 255 257 258 258 254 249 246 246 248 249 248 245 242 243 246 248 247 246 245 244 242
198 199 201 202 204 204 203 200 199 197 195 194 193 192 192 192 193 192 191 191 192 193 194 194 193 192 191 191 191 192 194 197 202 207 211 213 214 216 219 221 224 228 235 244 250 253 255 258 261 264 267 267 263 256 251 247 248 250 251 250 247 247 249 251 250 248 246 245 244
198 199 201 202 204 204 202 200 198 196 195 194 192 192 193 194 194 194 194 193 193 193 193 193 192 191 191 191 192 194 197 201 205 208 210 212 214 217 221 224 226 230 237 245 252 257 260 263 268 272 275 275 272 265 257 251 249 249 251 252 251 251 251 252 252 249 247 245 244
198 200 201 202 203 203 201 199 197 196 195 194 193 193 195 196 196 195 195 194 193 193 193 192 191 190 191 192 194 197 201 204 206 208 209 212 215 219 223 226 229 233 240 247 255 261 265 269 274 279 281 281 277 271 263 255 250 249 250 251 251 252 253 254 253 251 249 247 245
198 199 201 202 202 201 200 198 197 196 195 195 195 196 196 197 197 196 195 194 193 194 194 194 193 192 193 194 197 199 202 205 206 206 209 212 217 221 224 227 231 236 243 251 258 264 270 275 282 286 286 284 279 273 266 258 252 249 249 250 252 255 256 256 254 252 250 249 246
197 199 200 201 201 199 197 196 195 195 196 197 198 198 198 198 197 196 194 193 192 192 193 194 194 194 194 196 199 201 203 204 204 206 209 214 218 223 227 231 235 240 246 253 260 267 275 282 288 290 289 285 279 274 267 260 254 250 250 252 254 256 257 256 255 253 251 250 247
195 197 198 199 199 196 195 194 195 195 196 198 198 198 198 198 198 196 193 191 190 190 191 192 192 193 194 197 200 202 203 204 205 209 213 217 220 225 230 235 238 243 248 256 264 273 281 287 290 291 289 285 280 274 268 261 256 253 253 254 255 256 256 255 254 253 251 249 247
193 194 195 196 195 194 194 194 195 197 197 197 198 197 198 198 198 195 192 190 190 190 191 191 191 192 195 197 200 203 205 206 208 212 217 221 224 227 231 236 240 244 250 259 269 278 285 289 290 290 288 286 281 274 267 260 256 255 255 255 256 256 256 256 255 252 250 247 245
190 191 191 192 193 193 194 194 195 196 197 197 197 197 197 197 197 195 193 191 192 193 193 192 192 194 197 199 201 204 206 208 212 216 220 224 228 230 232 237 242 245 251 261 273 281 286 287 287 286 286 285 281 274 265 258 257 257 257 258 259 259 258 257 256 252 248 245 245
187 188 189 191 192 193 194 195 195 195 196 196 197 197 197 198 198 197 194 193 195 195 195 194 195 197 199 200 201 203 207 211 215 220 224 227 230 231 233 238 245 249 255 265 276 282 285 286 285 285 284 284 281 275 267 261 259 259 260 261 262 262 261 258 255 252 247 244 246
183 186 188 190 192 194 195 195 194 194 194 195 196 196 197 198 199 197 196 195 197 198 198 197 197 197 198 198 199 202 207 213 218 223 226 227 229 232 237 243 251 258 265 273 279 283 284 285 285 285 284 283 281 276 269 263 261 261 262 262 263 263 263 260 255 251 247 244 245
180 182 185 188 191 193 193 193 192 192 192 193 195 196 197 197 198 198 197 196 198 199 199 198 196 195 195 197 199 203 207 212 217 221 225 227 232 238 245 252 260 267 273 278 281 283 284 285 285 285 284 283 280 275 268 262 261 261 262 262 263 263 263 262 257 251 246 243 241